Regional Weather Roundup
Issued by NWS Albany, NY

Home | Current Version | Previous Version | Text Only | Print | Product List | Glossary On
Versions: 1 2 3 4 5 6 7 8 9 10 11 12 13 14 15 16 17 18 19 20 21 22 23 24 25 26 27 28 29 30 31 32 33 34 35 36 37 38 39 40 41 42 43 44 45 46 47 48 49 50
000
ASUS41 KALY 261310
RWRALY

NEW YORK STATE HOURLY WEATHER ROUNDUP
NATIONAL WEATHER SERVICE ALBANY NY
900 AM EDT SAT JUL 26 2014

NOTE: "FAIR" INDICATES FEW OR NO CLOUDS BELOW 12,000 FEET WITH NO
SIGNIFICANT WEATHER AND/OR NO OBSTRUCTIONS TO VISIBILITY.

NYZ032-033-038>043-046>054-057>066-NYZ062>081-261400-
EAST


CITY           SKY/WX    TMP DP  RH WIND       PRES   REMARKS
ALBANY         MOSUNNY   69  60  73 S6        29.98S
GLENS FALLS    MOSUNNY   67  58  72 S6        29.96S
POUGHKEEPSIE   MOSUNNY   73  60  63 SW5       29.98F
MONTGOMERY     MOSUNNY   70  59  68 SW6       30.00S
WHITE PLAINS   MOSUNNY   73  59  61 SW3       30.00F
ISLIP          PTSUNNY   77  59  53 SW8       30.00S
NEW YORK CITY  PTSUNNY   76  55  48 SW6       29.99F
CENTRAL PARK   MOSUNNY   74  56  53 VRB3      30.03S
$$

NYZ005>009-017-018-044>046-055-056-261400-
CENTRAL


CITY           SKY/WX    TMP DP  RH WIND       PRES   REMARKS
FULTON         PTSUNNY   69  59  70 SW8       29.96S
SYRACUSE       MOSUNNY   71  56  58 SW8       29.96F
ROME           PTSUNNY   65  57  75 SE3       29.99S
ELMIRA         PTSUNNY   60  57  89 SW5       30.00S
BINGHAMTON     PTSUNNY   62  54  74 SW6       30.01S
MONTICELLO     MOSUNNY   66  55  68 SW3       30.04S
$$

NYZ026>034-041>043-261400-
NORTH


CITY           SKY/WX    TMP DP  RH WIND       PRES   REMARKS
WATERTOWN      MOSUNNY   70  59  68 SW9       29.93F
FORT DRUM      NOT AVBL
MASSENA        MOSUNNY   68  60  75 SW9       29.90S
SARANAC LAKE   PTSUNNY   61  54  77 SW8       29.94F
PLATTSBURGH    MOSUNNY   67  57  70 S3        29.91S
$$

NYZ001>004-010>016-019>021-261400-
WEST


CITY           SKY/WX    TMP DP  RH WIND       PRES   REMARKS
NIAGARA FALLS  PTSUNNY   72  62  71 SW12      29.94S
BUFFALO        MOSUNNY   69  57  65 SW12      29.95F
DUNKIRK        CLOUDY    67  55  65 S10       29.97S
JAMESTOWN      CLOUDY    59  54  82 S6        30.01S
WELLSVILLE     CLOUDY    63  51  65 CALM      30.04S
ROCHESTER      MOSUNNY   66  57  72 SW7       29.96S
PENN YAN       PTSUNNY   67  56  67 SW9       29.99S
$$

             KEY
       WCI = WIND CHILL INDEX
       VSB = VISIBILITY
       HX  = HEAT INDEX
$$


USA.gov is the U.S. government's official web portal to all federal, state and local government web resources and services.